TimeCST,TemperatureF,Dew PointF,Humidity,Sea Level PressureIn,VisibilityMPH,Wind Direction,Wind SpeedMPH,Gust SpeedMPH,PrecipitationIn,Events,Conditions,WindDirDegrees,DateUTC
12:15 AM,-7.6,-11.2,84,29.90,10.0,Calm,Calm,-,N/A,,Mostly Cloudy,0,2013-02-04 06:15:00
12:35 AM,-7.6,-13.0,77,29.90,10.0,Calm,Calm,-,N/A,,Overcast,0,2013-02-04 06:35:00
12:55 AM,-7.6,-13.0,77,29.89,10.0,Calm,Calm,-,N/A,,Overcast,0,2013-02-04 06:55:00
1:15 AM,-9.4,-14.8,77,29.89,10.0,Calm,Calm,-,N/A,,Scattered Clouds,0,2013-02-04 07:15:00
1:35 AM,-11.2,-16.6,77,29.89,10.0,Calm,Calm,-,N/A,,Clear,0,2013-02-04 07:35:00
1:55 AM,-13.0,-18.4,77,29.89,10.0,Calm,Calm,-,N/A,,Clear,0,2013-02-04 07:55:00
2:15 AM,-14.8,-18.4,84,29.90,10.0,Calm,Calm,-,N/A,,Clear,0,2013-02-04 08:15:00
2:35 AM,-16.6,-22.0,76,29.89,10.0,Calm,Calm,-,N/A,,Clear,0,2013-02-04 08:35:00
2:55 AM,-16.6,-22.0,76,29.89,10.0,Calm,Calm,-,N/A,,Clear,0,2013-02-04 08:55:00
3:15 AM,-16.6,-22.0,76,29.89,10.0,Calm,Calm,-,N/A,,Scattered Clouds,0,2013-02-04 09:15:00
4:55 AM,-18.4,-25.6,70,29.89,10.0,Calm,Calm,-,N/A,,Clear,0,2013-02-04 10:55:00
5:15 AM,-20.2,-25.6,76,29.89,10.0,Calm,Calm,-,N/A,,Clear,0,2013-02-04 11:15:00
5:35 AM,-22.0,-27.4,76,29.89,10.0,Calm,Calm,-,N/A,,Clear,0,2013-02-04 11:35:00
5:55 AM,-22.0,-27.4,76,29.89,10.0,Calm,Calm,-,N/A,,Clear,0,2013-02-04 11:55:00
6:15 AM,-23.8,-29.2,76,29.89,10.0,Calm,Calm,-,N/A,,Clear,0,2013-02-04 12:15:00
6:55 AM,-23.8,-31.0,69,29.89,10.0,Calm,Calm,-,N/A,,Clear,0,2013-02-04 12:55:00
7:15 AM,-23.8,-31.0,69,29.89,10.0,Calm,Calm,-,N/A,,Scattered Clouds,0,2013-02-04 13:15:00
7:35 AM,-23.8,-31.0,69,29.90,10.0,Calm,Calm,-,N/A,,Clear,0,2013-02-04 13:35:00
7:55 AM,-22.0,-27.4,76,29.90,10.0,Calm,Calm,-,N/A,,Clear,0,2013-02-04 13:55:00
8:15 AM,-18.4,-25.6,70,29.90,10.0,Calm,Calm,-,N/A,,Clear,0,2013-02-04 14:15:00
8:35 AM,-14.8,-20.2,77,29.90,10.0,Calm,Calm,-,N/A,,Clear,0,2013-02-04 14:35:00
8:55 AM,-9.4,-14.8,77,29.90,10.0,Calm,Calm,-,N/A,,Clear,0,2013-02-04 14:55:00
9:15 AM,1.4,-4.0,78,29.90,10.0,WNW,3.5,-,N/A,,Clear,300,2013-02-04 15:15:00
9:35 AM,3.2,-0.4,85,29.90,10.0,WNW,4.6,-,N/A,,Clear,300,2013-02-04 15:35:00
9:55 AM,5.0,-0.4,78,29.90,10.0,WNW,4.6,-,N/A,,Clear,300,2013-02-04 15:55:00
10:15 AM,5.0,-0.4,78,29.90,10.0,Calm,Calm,-,N/A,,Clear,0,2013-02-04 16:15:00
10:35 AM,8.6,-0.4,67,29.91,10.0,West,4.6,-,N/A,,Scattered Clouds,280,2013-02-04 16:35:00
10:55 AM,8.6,-0.4,67,29.91,10.0,NNW,5.8,-,N/A,,Scattered Clouds,330,2013-02-04 16:55:00
11:15 AM,8.6,-0.4,67,29.91,10.0,NNW,3.5,-,N/A,,Scattered Clouds,340,2013-02-04 17:15:00
11:35 AM,8.6,-0.4,67,29.90,10.0,NW,4.6,-,N/A,,Clear,320,2013-02-04 17:35:00
11:55 AM,10.4,-0.4,62,29.89,10.0,WNW,4.6,-,N/A,,Clear,290,2013-02-04 17:55:00
12:15 PM,10.4,-0.4,62,29.89,10.0,NNW,3.5,-,N/A,,Scattered Clouds,330,2013-02-04 18:15:00
12:35 PM,12.2,-0.4,57,29.88,10.0,West,6.9,-,N/A,,Scattered Clouds,280,2013-02-04 18:35:00
12:55 PM,12.2,-2.2,53,29.87,10.0,West,9.2,-,N/A,,Scattered Clouds,280,2013-02-04 18:55:00
1:15 PM,12.2,-2.2,53,29.86,10.0,WNW,5.8,-,N/A,,Clear,300,2013-02-04 19:15:00
1:35 PM,12.2,-2.2,53,29.85,10.0,West,5.8,-,N/A,,Clear,280,2013-02-04 19:35:00
1:55 PM,12.2,-4.0,48,29.84,10.0,NW,6.9,-,N/A,,Clear,320,2013-02-04 19:55:00
2:15 PM,12.2,-5.8,45,29.83,10.0,NNW,5.8,-,N/A,,Clear,340,2013-02-04 20:15:00
2:35 PM,12.2,-5.8,45,29.83,10.0,NW,5.8,-,N/A,,Clear,320,2013-02-04 20:35:00
2:55 PM,14.0,-4.0,45,29.83,10.0,West,3.5,-,N/A,,Clear,280,2013-02-04 20:55:00
3:15 PM,14.0,-5.8,41,29.83,10.0,WNW,6.9,-,N/A,,Clear,300,2013-02-04 21:15:00
3:35 PM,12.2,-7.6,41,29.83,10.0,WNW,4.6,-,N/A,,Clear,300,2013-02-04 21:35:00
3:55 PM,12.2,-5.8,45,29.83,10.0,Calm,Calm,-,N/A,,Clear,0,2013-02-04 21:55:00
4:15 PM,12.2,-4.0,48,29.83,10.0,WNW,3.5,-,N/A,,Clear,290,2013-02-04 22:15:00
4:35 PM,12.2,-4.0,48,29.84,10.0,West,4.6,-,N/A,,Clear,270,2013-02-04 22:35:00
4:55 PM,10.4,-4.0,52,29.84,10.0,WNW,3.5,-,N/A,,Clear,290,2013-02-04 22:55:00
5:15 PM,8.6,-4.0,57,29.84,10.0,West,3.5,-,N/A,,Clear,270,2013-02-04 23:15:00
5:35 PM,6.8,-4.0,61,29.83,10.0,Calm,Calm,-,N/A,,Clear,0,2013-02-04 23:35:00
5:55 PM,1.4,-4.0,78,29.82,10.0,Calm,Calm,-,N/A,,Clear,0,2013-02-04 23:55:00
6:15 PM,-0.4,-5.8,78,29.81,10.0,Calm,Calm,-,N/A,,Clear,0,2013-02-05 00:15:00
6:35 PM,-2.2,-5.8,85,29.82,10.0,Calm,Calm,-,N/A,,Clear,0,2013-02-05 00:35:00
6:55 PM,-4.0,-7.6,85,29.82,10.0,Calm,Calm,-,N/A,,Clear,0,2013-02-05 00:55:00
7:15 PM,-5.8,-9.4,84,29.82,10.0,Calm,Calm,-,N/A,,Clear,0,2013-02-05 01:15:00
7:35 PM,-7.6,-11.2,84,29.81,10.0,Calm,Calm,-,N/A,,Clear,0,2013-02-05 01:35:00
7:55 PM,-7.6,-11.2,84,29.80,10.0,Calm,Calm,-,N/A,,Clear,0,2013-02-05 01:55:00
8:15 PM,-7.6,-13.0,77,29.80,10.0,Calm,Calm,-,N/A,,Clear,0,2013-02-05 02:15:00
8:35 PM,-9.4,-14.8,77,29.80,10.0,Calm,Calm,-,N/A,,Clear,0,2013-02-05 02:35:00
8:55 PM,-9.4,-13.0,84,29.80,10.0,Calm,Calm,-,N/A,,Clear,0,2013-02-05 02:55:00
9:15 PM,-9.4,-14.8,77,29.79,10.0,Calm,Calm,-,N/A,,Clear,0,2013-02-05 03:15:00
9:35 PM,-9.4,-14.8,77,29.78,10.0,Calm,Calm,-,N/A,,Clear,0,2013-02-05 03:35:00
9:55 PM,-9.4,-13.0,84,29.77,10.0,Calm,Calm,-,N/A,,Mostly Cloudy,0,2013-02-05 03:55:00
10:15 PM,-9.4,-13.0,84,29.76,10.0,Calm,Calm,-,N/A,,Scattered Clouds,0,2013-02-05 04:15:00
10:35 PM,-7.6,-13.0,77,29.76,10.0,Calm,Calm,-,N/A,,Scattered Clouds,0,2013-02-05 04:35:00
10:55 PM,-7.6,-13.0,77,29.76,10.0,Calm,Calm,-,N/A,,Mostly Cloudy,0,2013-02-05 04:55:00
11:15 PM,-7.6,-11.2,84,29.76,10.0,Calm,Calm,-,N/A,,Overcast,0,2013-02-05 05:15:00
11:35 PM,-7.6,-13.0,77,29.76,10.0,Calm,Calm,-,N/A,,Mostly Cloudy,0,2013-02-05 05:35:00
11:55 PM,-5.8,-9.4,84,29.74,10.0,Calm,Calm,-,N/A,,Overcast,0,2013-02-05 05:55:00